Time,TemperatureF,DewpointF,PressureIn,WindDirection,WindDirectionDegrees,WindSpeedMPH,WindSpeedGustMPH,Humidity,HourlyPrecipIn,Conditions,Clouds,dailyrainin,SolarRadiationWatts/m^2,SoftwareType,DateUTC
2013-05-03 00:02:00,76.0,64.0,-100.00,North,357,2.0,6.0,66,0.00,,,0.00,0.000000,,2013-05-03 10:02:00,
2013-05-03 00:12:00,76.0,64.0,-100.00,North,357,2.0,6.0,66,0.00,,,0.00,0.000000,,2013-05-03 10:12:00,
2013-05-03 00:42:00,76.0,66.0,-100.00,NNW,335,2.0,10.0,72,0.00,,,0.00,0.000000,,2013-05-03 10:42:00,
2013-05-03 00:52:00,76.0,66.0,-100.00,NNW,335,2.0,10.0,72,0.00,,,0.00,0.000000,,2013-05-03 10:52:00,
2013-05-03 01:02:00,76.0,66.0,-100.00,NNW,335,2.0,10.0,72,0.00,,,0.00,0.000000,,2013-05-03 11:02:00,
2013-05-03 01:11:00,76.0,66.0,-100.00,NNW,335,2.0,10.0,72,0.00,,,0.00,0.000000,,2013-05-03 11:11:00,
2013-05-03 01:21:00,76.0,66.0,-100.00,NNW,335,2.0,10.0,72,0.00,,,0.00,0.000000,,2013-05-03 11:21:00,
2013-05-03 01:42:00,75.0,64.0,-100.00,North,11,2.0,8.0,68,0.00,,,0.00,0.000000,,2013-05-03 11:42:00,
2013-05-03 01:52:00,75.0,64.0,-100.00,North,11,2.0,8.0,68,0.00,,,0.00,0.000000,,2013-05-03 11:52:00,
2013-05-03 02:01:00,75.0,64.0,-100.00,North,11,2.0,8.0,68,0.00,,,0.00,0.000000,,2013-05-03 12:01:00,
2013-05-03 02:11:00,75.0,64.0,-100.00,North,11,2.0,8.0,68,0.00,,,0.00,0.000000,,2013-05-03 12:11:00,
2013-05-03 02:21:00,75.0,64.0,-100.00,North,11,2.0,8.0,68,0.00,,,0.00,0.000000,,2013-05-03 12:21:00,
2013-05-03 02:22:00,74.0,70.0,-100.00,North,2,4.0,10.0,87,0.00,,,0.00,0.000000,,2013-05-03 12:22:00,
2013-05-03 02:42:00,74.0,70.0,-100.00,North,2,4.0,10.0,87,0.00,,,0.00,0.000000,,2013-05-03 12:42:00,
2013-05-03 02:52:00,74.0,70.0,-100.00,North,2,4.0,10.0,87,0.00,,,0.00,0.000000,,2013-05-03 12:52:00,
2013-05-03 03:01:00,74.0,70.0,-100.00,North,2,4.0,10.0,87,0.00,,,0.00,0.000000,,2013-05-03 13:01:00,
2013-05-03 03:11:00,74.0,70.0,-100.00,North,2,4.0,10.0,87,0.00,,,0.00,0.000000,,2013-05-03 13:11:00,
2013-05-03 03:42:00,71.0,65.0,-100.00,NE,44,2.0,6.0,81,0.00,,,0.00,0.000000,,2013-05-03 13:42:00,
2013-05-03 03:52:00,71.0,65.0,-100.00,NE,44,2.0,6.0,81,0.00,,,0.00,0.000000,,2013-05-03 13:52:00,
2013-05-03 04:01:00,71.0,65.0,-100.00,NE,44,2.0,6.0,81,0.00,,,0.00,0.000000,,2013-05-03 14:01:00,
2013-05-03 04:11:00,71.0,65.0,-100.00,NE,44,2.0,6.0,81,0.00,,,0.00,0.000000,,2013-05-03 14:11:00,
2013-05-03 04:21:00,71.0,65.0,-100.00,NE,44,2.0,6.0,81,0.00,,,0.00,0.000000,,2013-05-03 14:21:00,
2013-05-03 04:42:00,73.0,65.0,-100.00,NE,50,1.0,4.0,76,0.00,,,0.00,0.000000,,2013-05-03 14:42:00,
2013-05-03 04:52:00,73.0,65.0,-100.00,NE,50,1.0,4.0,76,0.00,,,0.00,0.000000,,2013-05-03 14:52:00,
2013-05-03 05:01:00,73.0,65.0,-100.00,NE,50,1.0,4.0,76,0.00,,,0.00,0.000000,,2013-05-03 15:01:00,
2013-05-03 05:11:00,73.0,65.0,-100.00,NE,50,1.0,4.0,76,0.00,,,0.00,0.000000,,2013-05-03 15:11:00,
2013-05-03 05:21:00,73.0,65.0,-100.00,NE,50,1.0,4.0,76,0.00,,,0.00,0.000000,,2013-05-03 15:21:00,
2013-05-03 05:22:00,73.0,66.0,-100.00,North,10,1.0,7.0,80,0.00,,,-99.99,0.000000,,2013-05-03 15:22:00,
2013-05-03 05:43:00,73.0,66.0,-100.00,North,10,1.0,7.0,80,0.00,,,-99.99,0.000000,,2013-05-03 15:43:00,
2013-05-03 05:53:00,73.0,66.0,-100.00,North,10,1.0,7.0,80,0.00,,,-99.99,0.000000,,2013-05-03 15:53:00,
2013-05-03 06:03:00,73.0,66.0,-100.00,North,10,1.0,7.0,80,0.00,,,-99.99,0.000000,,2013-05-03 16:03:00,
2013-05-03 06:12:00,73.0,66.0,-100.00,North,10,1.0,7.0,80,0.00,,,-99.99,0.000000,,2013-05-03 16:12:00,
2013-05-03 06:22:00,71.0,67.0,-100.00,NNE,33,2.0,7.0,87,0.00,,,0.00,0.000000,,2013-05-03 16:22:00,
2013-05-03 06:42:00,71.0,67.0,-100.00,NNE,33,2.0,7.0,87,0.00,,,0.00,0.000000,,2013-05-03 16:42:00,
2013-05-03 06:52:00,71.0,67.0,-100.00,NNE,33,2.0,7.0,87,0.00,,,0.00,0.000000,,2013-05-03 16:52:00,
2013-05-03 07:02:00,71.0,67.0,-100.00,NNE,33,2.0,7.0,87,0.00,,,0.00,0.000000,,2013-05-03 17:02:00,
2013-05-03 07:11:00,71.0,67.0,-100.00,NNE,33,2.0,7.0,87,0.00,,,0.00,0.000000,,2013-05-03 17:11:00,
2013-05-03 07:42:00,71.0,68.0,-100.00,East,95,3.0,8.0,91,0.22,,,0.22,5.000000,,2013-05-03 17:42:00,
2013-05-03 07:52:00,71.0,68.0,-100.00,East,95,3.0,8.0,91,0.22,,,0.22,5.000000,,2013-05-03 17:52:00,
2013-05-03 08:01:00,71.0,68.0,-100.00,East,95,3.0,8.0,91,0.22,,,0.22,5.000000,,2013-05-03 18:01:00,
2013-05-03 08:11:00,71.0,68.0,-100.00,East,95,3.0,8.0,91,0.22,,,0.22,5.000000,,2013-05-03 18:11:00,
2013-05-03 08:21:00,71.0,68.0,-100.00,East,95,3.0,8.0,91,0.22,,,0.22,5.000000,,2013-05-03 18:21:00,
2013-05-03 08:42:00,69.0,67.0,-100.00,ENE,74,4.0,11.0,94,0.46,,,0.68,17.000000,,2013-05-03 18:42:00,
2013-05-03 08:52:00,69.0,67.0,-100.00,ENE,74,4.0,11.0,94,0.46,,,0.68,17.000000,,2013-05-03 18:52:00,
2013-05-03 09:01:00,69.0,67.0,-100.00,ENE,74,4.0,11.0,94,0.46,,,0.68,17.000000,,2013-05-03 19:01:00,
2013-05-03 09:11:00,69.0,67.0,-100.00,ENE,74,4.0,11.0,94,0.46,,,0.68,17.000000,,2013-05-03 19:11:00,
2013-05-03 09:21:00,69.0,67.0,-100.00,ENE,74,4.0,11.0,94,0.46,,,0.68,17.000000,,2013-05-03 19:21:00,
2013-05-03 09:42:00,69.0,67.0,-100.00,East,88,4.0,9.0,93,0.38,,,1.06,58.000000,,2013-05-03 19:42:00,
2013-05-03 09:52:00,69.0,67.0,-100.00,East,88,4.0,9.0,93,0.38,,,1.06,58.000000,,2013-05-03 19:52:00,
2013-05-03 10:02:00,69.0,67.0,-100.00,East,88,4.0,9.0,93,0.38,,,1.06,58.000000,,2013-05-03 20:02:00,
2013-05-03 10:11:00,69.0,67.0,-100.00,East,88,4.0,9.0,93,0.38,,,1.06,58.000000,,2013-05-03 20:11:00,
2013-05-03 10:21:00,69.0,67.0,-100.00,East,88,4.0,9.0,93,0.38,,,1.06,58.000000,,2013-05-03 20:21:00,
2013-05-03 10:42:00,70.0,65.0,-100.00,East,89,3.0,7.0,85,0.06,,,1.12,121.000000,,2013-05-03 20:42:00,
2013-05-03 10:52:00,70.0,65.0,-100.00,East,89,3.0,7.0,85,0.06,,,1.12,121.000000,,2013-05-03 20:52:00,
2013-05-03 11:01:00,70.0,65.0,-100.00,East,89,3.0,7.0,85,0.06,,,1.12,121.000000,,2013-05-03 21:01:00,
2013-05-03 11:11:00,70.0,65.0,-100.00,East,89,3.0,7.0,85,0.06,,,1.12,121.000000,,2013-05-03 21:11:00,
2013-05-03 11:21:00,70.0,65.0,-100.00,East,89,3.0,7.0,85,0.06,,,1.12,121.000000,,2013-05-03 21:21:00,
2013-05-03 11:22:00,71.0,67.0,-100.00,North,10,2.0,8.0,88,0.01,,,1.13,138.000000,,2013-05-03 21:22:00,
2013-05-03 11:43:00,71.0,67.0,-100.00,North,10,2.0,8.0,88,0.01,,,1.13,138.000000,,2013-05-03 21:43:00,
2013-05-03 11:53:00,71.0,67.0,-100.00,North,10,2.0,8.0,88,0.01,,,1.13,138.000000,,2013-05-03 21:53:00,
2013-05-03 12:02:00,71.0,67.0,-100.00,North,10,2.0,8.0,88,0.01,,,1.13,138.000000,,2013-05-03 22:02:00,
2013-05-03 12:12:00,71.0,67.0,-100.00,North,10,2.0,8.0,88,0.01,,,1.13,138.000000,,2013-05-03 22:12:00,
2013-05-03 12:42:00,74.0,62.0,-100.00,NE,36,2.0,7.0,67,0.00,,,1.13,307.000000,,2013-05-03 22:42:00,
2013-05-03 12:52:00,74.0,62.0,-100.00,NE,36,2.0,7.0,67,0.00,,,1.13,307.000000,,2013-05-03 22:52:00,
2013-05-03 13:01:00,74.0,62.0,-100.00,NE,36,2.0,7.0,67,0.00,,,1.13,307.000000,,2013-05-03 23:01:00,
2013-05-03 13:11:00,74.0,62.0,-100.00,NE,36,2.0,7.0,67,0.00,,,1.13,307.000000,,2013-05-03 23:11:00,
2013-05-03 13:21:00,74.0,62.0,-100.00,NE,36,2.0,7.0,67,0.00,,,1.13,307.000000,,2013-05-03 23:21:00,
2013-05-03 13:22:00,78.0,65.0,-100.00,North,0,2.0,7.0,64,0.00,,,1.13,447.000000,,2013-05-03 23:22:00,
2013-05-03 13:52:00,78.0,65.0,-100.00,North,0,2.0,7.0,64,0.00,,,1.13,447.000000,,2013-05-03 23:52:00,
2013-05-03 14:01:00,78.0,65.0,-100.00,North,0,2.0,7.0,64,0.00,,,1.13,447.000000,,2013-05-04 00:01:00,
2013-05-03 14:11:00,78.0,65.0,-100.00,North,0,2.0,7.0,64,0.00,,,1.13,447.000000,,2013-05-04 00:11:00,
2013-05-03 14:42:00,79.0,63.0,-100.00,WNW,293,3.0,7.0,59,0.00,,,1.13,370.000000,,2013-05-04 00:42:00,
2013-05-03 14:52:00,79.0,63.0,-100.00,WNW,293,3.0,7.0,59,0.00,,,1.13,370.000000,,2013-05-04 00:52:00,
2013-05-03 15:01:00,79.0,63.0,-100.00,WNW,293,3.0,7.0,59,0.00,,,1.13,370.000000,,2013-05-04 01:01:00,
2013-05-03 15:11:00,79.0,63.0,-100.00,WNW,293,3.0,7.0,59,0.00,,,1.13,370.000000,,2013-05-04 01:11:00,
2013-05-03 15:21:00,79.0,63.0,-100.00,WNW,293,3.0,7.0,59,0.00,,,1.13,370.000000,,2013-05-04 01:21:00,
2013-05-03 15:42:00,78.0,63.0,-100.00,WNW,282,3.0,9.0,60,0.00,,,1.13,323.000000,,2013-05-04 01:42:00,
2013-05-03 15:52:00,78.0,63.0,-100.00,WNW,282,3.0,9.0,60,0.00,,,1.13,323.000000,,2013-05-04 01:52:00,
2013-05-03 16:02:00,78.0,63.0,-100.00,WNW,282,3.0,9.0,60,0.00,,,1.13,323.000000,,2013-05-04 02:02:00,
2013-05-03 16:11:00,78.0,63.0,-100.00,WNW,282,3.0,9.0,60,0.00,,,1.13,323.000000,,2013-05-04 02:11:00,
2013-05-03 16:21:00,78.0,63.0,-100.00,WNW,282,3.0,9.0,60,0.00,,,1.13,323.000000,,2013-05-04 02:21:00,
2013-05-03 16:42:00,78.0,64.0,-100.00,West,271,3.0,8.0,62,0.00,,,1.13,240.000000,,2013-05-04 02:42:00,
2013-05-03 16:52:00,78.0,64.0,-100.00,West,271,3.0,8.0,62,0.00,,,1.13,240.000000,,2013-05-04 02:52:00,
2013-05-03 17:02:00,78.0,64.0,-100.00,West,271,3.0,8.0,62,0.00,,,1.13,240.000000,,2013-05-04 03:02:00,
2013-05-03 17:11:00,78.0,64.0,-100.00,West,271,3.0,8.0,62,0.00,,,1.13,240.000000,,2013-05-04 03:11:00,
2013-05-03 17:21:00,78.0,64.0,-100.00,West,271,3.0,8.0,62,0.00,,,1.13,240.000000,,2013-05-04 03:21:00,
2013-05-03 17:22:00,77.0,65.0,-100.00,West,266,2.0,6.0,66,0.00,,,1.13,94.000000,,2013-05-04 03:22:00,
2013-05-03 17:43:00,77.0,65.0,-100.00,West,266,2.0,6.0,66,0.00,,,1.13,94.000000,,2013-05-04 03:43:00,
2013-05-03 17:53:00,77.0,65.0,-100.00,West,266,2.0,6.0,66,0.00,,,1.13,94.000000,,2013-05-04 03:53:00,
2013-05-03 18:02:00,77.0,65.0,-100.00,West,266,2.0,6.0,66,0.00,,,1.13,94.000000,,2013-05-04 04:02:00,
2013-05-03 18:12:00,77.0,65.0,-100.00,West,266,2.0,6.0,66,0.00,,,1.13,94.000000,,2013-05-04 04:12:00,
2013-05-03 18:43:00,76.0,65.0,-100.00,SW,219,1.0,3.0,68,0.00,,,1.13,40.000000,,2013-05-04 04:43:00,
2013-05-03 18:52:00,76.0,65.0,-100.00,SW,219,1.0,3.0,68,0.00,,,1.13,40.000000,,2013-05-04 04:52:00,
2013-05-03 19:02:00,76.0,65.0,-100.00,SW,219,1.0,3.0,68,0.00,,,1.13,40.000000,,2013-05-04 05:02:00,
2013-05-03 19:11:00,76.0,65.0,-100.00,SW,219,1.0,3.0,68,0.00,,,1.13,40.000000,,2013-05-04 05:11:00,
2013-05-03 19:21:00,76.0,65.0,-100.00,SW,219,1.0,3.0,68,0.00,,,1.13,40.000000,,2013-05-04 05:21:00,
2013-05-03 19:43:00,75.0,67.0,-100.00,East,79,2.0,6.0,76,0.00,,,1.13,12.000000,,2013-05-04 05:43:00,
2013-05-03 19:52:00,75.0,67.0,-100.00,East,79,2.0,6.0,76,0.00,,,1.13,12.000000,,2013-05-04 05:52:00,
2013-05-03 20:01:00,75.0,67.0,-100.00,East,79,2.0,6.0,76,0.00,,,1.13,12.000000,,2013-05-04 06:01:00,
2013-05-03 20:11:00,75.0,67.0,-100.00,East,79,2.0,6.0,76,0.00,,,1.13,12.000000,,2013-05-04 06:11:00,
2013-05-03 20:21:00,75.0,67.0,-100.00,East,79,2.0,6.0,76,0.00,,,1.13,12.000000,,2013-05-04 06:21:00,
2013-05-03 20:42:00,74.0,66.0,-100.00,ENE,78,2.0,4.0,77,0.00,,,1.13,0.000000,,2013-05-04 06:42:00,
2013-05-03 20:52:00,74.0,66.0,-100.00,ENE,78,2.0,4.0,77,0.00,,,1.13,0.000000,,2013-05-04 06:52:00,
2013-05-03 21:01:00,74.0,66.0,-100.00,ENE,78,2.0,4.0,77,0.00,,,1.13,0.000000,,2013-05-04 07:01:00,
2013-05-03 21:11:00,74.0,66.0,-100.00,ENE,78,2.0,4.0,77,0.00,,,1.13,0.000000,,2013-05-04 07:11:00,
2013-05-03 21:21:00,74.0,66.0,-100.00,ENE,78,2.0,4.0,77,0.00,,,1.13,0.000000,,2013-05-04 07:21:00,
2013-05-03 21:42:00,73.0,66.0,-100.00,ENE,69,2.0,4.0,78,0.00,,,1.13,0.000000,,2013-05-04 07:42:00,
2013-05-03 21:52:00,73.0,66.0,-100.00,ENE,69,2.0,4.0,78,0.00,,,1.13,0.000000,,2013-05-04 07:52:00,
2013-05-03 22:01:00,73.0,66.0,-100.00,ENE,69,2.0,4.0,78,0.00,,,1.13,0.000000,,2013-05-04 08:01:00,
2013-05-03 22:11:00,73.0,66.0,-100.00,ENE,69,2.0,4.0,78,0.00,,,1.13,0.000000,,2013-05-04 08:11:00,
2013-05-03 22:21:00,73.0,66.0,-100.00,ENE,69,2.0,4.0,78,0.00,,,1.13,0.000000,,2013-05-04 08:21:00,
2013-05-03 22:42:00,73.0,66.0,-100.00,ENE,59,2.0,4.0,78,0.00,,,1.13,0.000000,,2013-05-04 08:42:00,
2013-05-03 22:52:00,73.0,66.0,-100.00,ENE,59,2.0,4.0,78,0.00,,,1.13,0.000000,,2013-05-04 08:52:00,
2013-05-03 23:02:00,73.0,66.0,-100.00,ENE,59,2.0,4.0,78,0.00,,,1.13,0.000000,,2013-05-04 09:02:00,
2013-05-03 23:11:00,73.0,66.0,-100.00,ENE,59,2.0,4.0,78,0.00,,,1.13,0.000000,,2013-05-04 09:11:00,
2013-05-03 23:21:00,73.0,66.0,-100.00,ENE,59,2.0,4.0,78,0.00,,,1.13,0.000000,,2013-05-04 09:21:00,
2013-05-03 23:22:00,72.0,64.0,-100.00,NE,47,2.0,6.0,77,0.00,,,1.13,0.000000,,2013-05-04 09:22:00,
2013-05-03 23:42:00,72.0,64.0,-100.00,NE,47,2.0,6.0,77,0.00,,,1.13,0.000000,,2013-05-04 09:42:00,
2013-05-03 23:53:00,72.0,64.0,-100.00,NE,47,2.0,6.0,77,0.00,,,1.13,0.000000,,2013-05-04 09:53:00,